When you browse on this site, cookies collect data to enhance your experience and personalize the content and advertising you see.
Visit our Privacy Policy to learn more. By continuing to use the site, you agree to this use of cookies and data.
  • In Portugal
  • List of Countries
  • For 7 days
  • Water Temperature
  • Weather Map
  • Weather Widgets
  • user-avatar
    Login

    Hourly Weather Oliva

    Today, 18 January, Saturday

    Time Temperature Precipitation Wind Pressure Humidity
    00:00 +12°C° 0 mm 2 mps 771 mmHg 68%
    01:00 +12°C° 0 mm 2 mps 771 mmHg 69%
    02:00 +10°C° 0 mm 2 mps 770 mmHg 69%
    03:00 +10°C° 0 mm 2 mps 770 mmHg 70%
    04:00 +10°C° 0 mm 2 mps 770 mmHg 69%
    05:00 +10°C° 0 mm 2 mps 770 mmHg 68%
    06:00 +10°C° 0 mm 2 mps 770 mmHg 67%
    07:00 +12°C° 0 mm 2 mps 770 mmHg 66%
    08:00 +13°C° 0 mm 2 mps 770 mmHg 65%
    09:00 +14°C° 0 mm 2 mps 770 mmHg 64%
    10:00 +15°C° 0 mm 2 mps 770 mmHg 60%
    11:00 +16°C° 0 mm 2 mps 769 mmHg 57%
    12:00 +17°C° 0 mm 2 mps 769 mmHg 53%
    13:00 +17°C° 0 mm 3 mps 768 mmHg 53%
    14:00 +17°C° 0 mm 4 mps 767 mmHg 52%
    15:00 +18°C° 0 mm 4 mps 766 mmHg 51%
    16:00 +15°C° 0 mm 4 mps 765 mmHg 58%
    17:00 +13°C° 0 mm 4 mps 765 mmHg 65%
    18:00 +12°C° 0 mm 3 mps 765 mmHg 72%
    19:00 +12°C° 0 mm 3 mps 764 mmHg 70%
    20:00 +12°C° 0 mm 3 mps 764 mmHg 69%
    21:00 +12°C° 0 mm 3 mps 764 mmHg 68%
    22:00 +12°C° 0 mm 3 mps 763 mmHg 70%
    23:00 +12°C° 0 mm 3 mps 763 mmHg 71%

    Tomorrow, 19 January, Sunday

    Time Temperature Precipitation Wind Pressure Humidity
    00:00 +12°C° 0 mm 3 mps 762 mmHg 73%
    01:00 +12°C° 0 mm 3 mps 761 mmHg 75%
    02:00 +12°C° 0 mm 4 mps 761 mmHg 77%
    03:00 +11°C° 0 mm 4 mps 760 mmHg 80%
    04:00 +11°C° 0 mm 4 mps 759 mmHg 79%
    05:00 +11°C° 0 mm 4 mps 759 mmHg 79%
    06:00 +11°C° 0 mm 4 mps 758 mmHg 79%
    07:00 +10°C° 0.4 mm 5 mps 758 mmHg 81%
    08:00 +10°C° 0.4 mm 6 mps 758 mmHg 83%
    09:00 +10°C° 0.4 mm 6 mps 758 mmHg 85%
    10:00 +10°C° 1.1 mm 7 mps 758 mmHg 86%
    11:00 +10°C° 1.1 mm 8 mps 758 mmHg 88%
    12:00 +9°C° 1.1 mm 10 mps 758 mmHg 89%
    13:00 +8°C° 3.8 mm 12 mps 758 mmHg 91%
    14:00 +8°C° 3.8 mm 15 mps 758 mmHg 94%
    15:00 +6°C° 3.8 mm 18 mps 758 mmHg 96%
    16:00 +6°C° 6 mm 18 mps 757 mmHg 95%
    17:00 +6°C° 6 mm 19 mps 757 mmHg 95%
    18:00 +6°C° 6 mm 19 mps 757 mmHg 95%
    19:00 +5°C° 4.1 mm 19 mps 757 mmHg 95%
    20:00 +5°C° 4.1 mm 19 mps 758 mmHg 94%
    21:00 +5°C° 4.1 mm 19 mps 758 mmHg 94%
    22:00 +5°C° 3.4 mm 19 mps 758 mmHg 95%
    23:00 +5°C° 3.4 mm 18 mps 758 mmHg 95%

    Day after tomorrow, 20 January, Monday

    Time Temperature Precipitation Wind Pressure Humidity
    00:00 +6°C° 3.4 mm 17 mps 759 mmHg 95%
    01:00 +6°C° 5.7 mm 17 mps 758 mmHg 95%
    02:00 +6°C° 5.7 mm 17 mps 758 mmHg 95%
    03:00 +6°C° 5.7 mm 18 mps 758 mmHg 96%
    04:00 +6°C° 4.8 mm 18 mps 758 mmHg 96%
    05:00 +6°C° 4.8 mm 18 mps 758 mmHg 96%
    06:00 +6°C° 4.8 mm 19 mps 758 mmHg 96%
    07:00 +6°C° 4.5 mm 16 mps 758 mmHg 95%
    08:00 +7°C° 4.5 mm 12 mps 758 mmHg 95%
    09:00 +7°C° 4.5 mm 9 mps 758 mmHg 94%
    10:00 +9°C° 0.9 mm 8 mps 758 mmHg 90%
    11:00 +10°C° 0.9 mm 6 mps 758 mmHg 86%
    12:00 +12°C° 0.9 mm 4 mps 758 mmHg 83%
    13:00 +11°C° 0.8 mm 4 mps 758 mmHg 86%
    14:00 +10°C° 0.8 mm 4 mps 758 mmHg 90%
    15:00 +8°C° 0.8 mm 4 mps 758 mmHg 93%
    16:00 +8°C° 0.8 mm 4 mps 758 mmHg 94%
    17:00 +8°C° 0.8 mm 4 mps 758 mmHg 96%
    18:00 +8°C° 0.8 mm 3 mps 758 mmHg 97%
    19:00 +9°C° 0.5 mm 3 mps 759 mmHg 96%
    20:00 +9°C° 0.5 mm 3 mps 759 mmHg 96%
    21:00 +9°C° 0.5 mm 3 mps 759 mmHg 95%
    22:00 +10°C° 0.8 mm 4 mps 759 mmHg 95%
    23:00 +9°C° 0.8 mm 5 mps 759 mmHg 94%

    21 January, Tuesday

    Time Temperature Precipitation Wind Pressure Humidity
    00:00 +9°C° 0.8 mm 7 mps 759 mmHg 93%
    01:00 +9°C° 3.1 mm 6 mps 758 mmHg 94%
    02:00 +9°C° 3.1 mm 6 mps 758 mmHg 94%
    03:00 +8°C° 3.1 mm 5 mps 757 mmHg 95%
    04:00 +9°C° 0.4 mm 6 mps 757 mmHg 93%
    05:00 +9°C° 0.4 mm 6 mps 757 mmHg 91%
    06:00 +10°C° 0.4 mm 6 mps 756 mmHg 88%
    07:00 +10°C° 1 mm 8 mps 756 mmHg 88%
    08:00 +11°C° 1 mm 11 mps 756 mmHg 87%
    09:00 +10°C° 1 mm 13 mps 756 mmHg 87%
    10:00 +12°C° 0.9 mm 11 mps 756 mmHg 81%
    11:00 +13°C° 0.9 mm 9 mps 756 mmHg 75%
    12:00 +13°C° 0.9 mm 8 mps 756 mmHg 70%
    13:00 +15°C° 0 mm 6 mps 756 mmHg 67%
    14:00 +15°C° 0 mm 5 mps 757 mmHg 64%
    15:00 +15°C° 0 mm 4 mps 757 mmHg 60%
    16:00 +13°C° 0 mm 4 mps 757 mmHg 69%
    17:00 +12°C° 0 mm 3 mps 758 mmHg 77%
    18:00 +10°C° 0 mm 3 mps 758 mmHg 85%
    19:00 +9°C° 0 mm 2 mps 759 mmHg 85%
    20:00 +9°C° 0 mm 2 mps 759 mmHg 85%
    21:00 +9°C° 0 mm 2 mps 759 mmHg 85%
    22:00 +8°C° 0 mm 2 mps 759 mmHg 85%
    23:00 +8°C° 0 mm 2 mps 759 mmHg 85%

    22 January, Wednesday

    Time Temperature Precipitation Wind Pressure Humidity
    00:00 +8°C° 0 mm 2 mps 760 mmHg 85%
    01:00 +8°C° 0 mm 2 mps 759 mmHg 84%
    02:00 +7°C° 0 mm 2 mps 759 mmHg 84%
    03:00 +7°C° 0 mm 3 mps 759 mmHg 83%
    04:00 +8°C° 0 mm 3 mps 759 mmHg 80%
    05:00 +8°C° 0 mm 3 mps 759 mmHg 77%
    06:00 +8°C° 0 mm 3 mps 760 mmHg 74%
    07:00 +9°C° 0 mm 3 mps 760 mmHg 72%
    08:00 +10°C° 0 mm 3 mps 760 mmHg 69%
    09:00 +13°C° 0 mm 2 mps 761 mmHg 66%
    10:00 +14°C° 0 mm 2 mps 761 mmHg 62%
    11:00 +15°C° 0 mm 2 mps 761 mmHg 58%
    12:00 +16°C° 0 mm 2 mps 761 mmHg 54%
    13:00 +16°C° 0 mm 2 mps 761 mmHg 55%
    14:00 +16°C° 0 mm 3 mps 761 mmHg 56%
    15:00 +15°C° 0 mm 4 mps 761 mmHg 58%
    16:00 +13°C° 0 mm 4 mps 762 mmHg 65%
    17:00 +12°C° 0 mm 3 mps 762 mmHg 73%
    18:00 +10°C° 0 mm 3 mps 763 mmHg 80%
    19:00 +9°C° 0 mm 3 mps 763 mmHg 81%
    20:00 +9°C° 0 mm 2 mps 764 mmHg 81%
    21:00 +9°C° 0 mm 2 mps 764 mmHg 82%
    22:00 +8°C° 0 mm 2 mps 765 mmHg 81%
    23:00 +8°C° 0 mm 2 mps 765 mmHg 80%

    23 January, Thursday

    Time Temperature Precipitation Wind Pressure Humidity
    00:00 +9°C° 0 mm 1 mps 765 mmHg 80%
    01:00 +9°C° 0 mm 1 mps 765 mmHg 81%
    02:00 +9°C° 0 mm 1 mps 765 mmHg 82%
    03:00 +9°C° 0 mm 1 mps 765 mmHg 83%
    04:00 +8°C° 0 mm 2 mps 764 mmHg 83%
    05:00 +8°C° 0 mm 2 mps 764 mmHg 83%
    06:00 +8°C° 0 mm 3 mps 764 mmHg 84%
    07:00 +9°C° 0 mm 3 mps 764 mmHg 82%
    08:00 +9°C° 0 mm 3 mps 765 mmHg 80%
    09:00 +10°C° 0 mm 3 mps 765 mmHg 79%
    10:00 +11°C° 0 mm 3 mps 765 mmHg 78%
    11:00 +13°C° 0 mm 3 mps 765 mmHg 78%
    12:00 +14°C° 0 mm 3 mps 765 mmHg 78%
    13:00 +14°C° 0 mm 3 mps 765 mmHg 79%
    14:00 +14°C° 0 mm 3 mps 765 mmHg 80%
    15:00 +14°C° 0 mm 3 mps 764 mmHg 81%
    16:00 +13°C° 0 mm 3 mps 765 mmHg 86%
    17:00 +12°C° 0 mm 3 mps 765 mmHg 90%
    18:00 +11°C° 0 mm 3 mps 765 mmHg 94%
    19:00 +10°C° 0 mm 3 mps 765 mmHg 94%
    20:00 +10°C° 0 mm 3 mps 766 mmHg 95%
    21:00 +10°C° 0 mm 3 mps 766 mmHg 96%
    22:00 +10°C° 0 mm 3 mps 766 mmHg 95%
    23:00 +10°C° 0 mm 2 mps 766 mmHg 95%
    Show more